Probability
0 0 0 0 0 0 0 0 0 0 0 0 0 0 0 0 0 0 3 35 65 81 84 77 81 87 94 97 94 97 97 97 97 97 97 97 97 90 87 81 84 84 68
0 0 0 0 0 0 0 0 0 0 0 0 0 0 0 0 0 0 0 19 61 74 84 74 81 84 90 94 90 100 94 97 97 94 94 94 94 87 87 84 74 68 65
0 0 0 0 0 0 0 0 0 0 0 0 0 0 0 0 0 0 3 3 10 52 74 77 84 90 94 94 90 94 97 100 97 94 94 94 90 90 84 81 74 65 55
0 0 0 0 0 0 0 0 0 0 0 0 0 0 0 0 0 0 0 3 3 13 45 68 87 84 90 94 90 94 90 94 94 94 94 94 90 90 87 81 77 68 61
0 0 0 0 0 0 0 0 0 0 0 0 0 0 0 0 0 0 0 0 0 0 6 29 61 77 87 94 90 87 94 94 94 94 94 94 90 87 90 84 77 74 68
0 0 0 0 0 0 0 0 0 0 0 0 0 0 0 0 0 0 0 0 0 0 3 6 13 35 74 90 87 87 90 90 94 90 94 90 87 84 87 84 77 77 71
0 0 0 0 0 0 0 0 0 0 0 0 0 0 0 0 0 0 0 0 0 0 0 3 0 3 23 68 77 84 81 87 87 90 90 90 87 84 87 87 77 77 71
0 0 0 0 0 0 0 0 0 0 0 0 0 0 0 0 0 0 0 0 0 0 0 0 0 0 0 10 13 55 74 90 90 84 87 87 87 87 84 90 84 74 71
0 0 0 0 0 0 0 0 0 0 0 0 0 0 0 0 0 0 0 0 0 0 0 0 0 0 0 0 3 10 42 61 87 84 87 84 87 87 87 90 87 77 71
0 0 0 0 0 0 0 0 0 0 0 0 0 0 0 0 0 0 0 0 0 0 0 0 0 0 0 0 0 0 3 29 68 71 77 74 81 84 84 87 90 84 77
0 0 0 0 0 0 0 0 0 0 0 0 0 0 0 0 0 0 0 0 0 0 0 0 0 0 0 0 0 0 0 0 26 68 68 71 81 84 81 84 84 81 74
0 0 0 0 0 0 0 0 0 0 0 0 0 0 0 0 0 0 0 0 0 0 0 0 0 0 0 0 0 0 0 0 10 26 61 71 71 74 74 81 81 81 71
0 0 0 0 0 0 0 0 0 0 0 0 0 0 0 0 0 0 0 0 0 0 0 0 0 0 0 0 0 0 0 0 0 6 29 42 52 65 65 61 68 71 77
0 0 0 0 0 0 0 0 0 0 0 0 0 0 0 0 0 0 0 0 0 0 0 0 0 0 0 0 0 0 0 0 0 0 0 13 26 32 48 58 61 68 71
0 0 0 0 0 0 0 0 0 0 0 0 0 0 0 0 0 0 0 0 0 0 0 0 0 0 0 0 0 0 0 0 0 0 0 0 0 10 23 29 29 35 39
0 0 0 0 0 0 0 0 0 0 0 0 0 0 0 0 0 0 0 0 0 0 0 0 0 0 0 0 0 0 0 0 0 0 0 0 0 0 3 6 6 3 3
0 0 0 0 0 0 0 0 0 0 0 0 0 0 0 0 0 0 0 0 0 0 0 0 0 0 0 0 0 0 0 0 0 0 0 0 0 0 0 0 0 0 0
0 0 0 0 0 0 0 0 0 0 0 0 0 0 0 0 0 0 0 0 0 0 0 0 0 0 0 0 0 0 0 0 0 0 0 0 0 0 0 0 0 0 0
0 0 0 0 0 0 0 0 0 0 0 0 0 0 0 0 0 0 0 0 0 0 0 0 0 0 0 0 0 0 0 0 0 0 0 0 0 0 0 0 0 0 0
0 0 0 0 0 0 0 0 0 0 0 0 0 0 0 0 0 0 0 0 0 0 0 0 0 0 0 0 0 0 0 0 0 0 0 0 0 0 0 0 0 0 0
0 0 0 0 0 0 0 0 0 0 0 0 0 0 0 0 0 0 0 0 0 0 0 0 0 0 0 0 0 0 0 0 0 0 0 0 0 0 0 0 0 0 0
0 0 0 0 0 0 0 0 0 0 0 0 0 0 0 0 0 0 0 0 0 0 0 0 0 0 0 0 0 0 0 0 0 0 0 0 0 0 0 0 0 0 0
0 0 0 0 0 0 0 0 0 0 0 0 0 0 0 0 0 0 0 0 0 0 0 0 0 0 0 0 0 0 0 0 0 0 0 0 0 0 0 0 0 0 0
0 0 0 0 0 0 0 0 0 0 0 0 0 0 0 0 0 0 0 0 0 0 0 0 0 0 0 0 0 0 0 0 0 0 0 0 0 0 0 0 0 0 0
0 0 0 0 0 0 0 0 0 0 0 0 0 0 0 0 0 0 0 0 0 0 0 0 0 0 0 0 0 0 0 0 0 0 0 0 0 0 0 0 0 0 0
0 0 0 0 0 0 0 0 0 0 0 0 0 0 0 0 0 0 0 0 0 0 0 0 0 0 0 0 0 0 0 0 0 0 0 0 0 0 0 0 0 0 0
Height
5815 5813 5810 5809 5807 5806 5805 5805 5806 5807 5808 5810 5813 5815 5818 5821 5825 5828 5831 5835 5838 5841 5845 5848 5851 5854 5856 5859 5862 5865 5867 5869 5871 5873 5875 5877 5878 5880 5882 5884 5885 5886 5888
5811 5809 5807 5805 5803 5802 5801 5801 5801 5802 5804 5805 5808 5810 5813 5816 5820 5823 5827 5831 5834 5838 5841 5845 5848 5851 5854 5857 5860 5862 5865 5867 5870 5872 5874 5876 5878 5879 5881 5883 5885 5886 5887
5808 5806 5803 5801 5799 5798 5797 5797 5797 5798 5799 5801 5803 5805 5808 5811 5815 5818 5822 5826 5830 5834 5838 5841 5845 5848 5851 5854 5857 5860 5863 5865 5868 5870 5873 5875 5876 5878 5880 5882 5884 5885 5887
5805 5802 5800 5798 5796 5794 5793 5793 5793 5794 5795 5797 5799 5801 5803 5807 5810 5813 5817 5822 5826 5830 5834 5838 5841 5844 5848 5851 5854 5857 5860 5863 5865 5868 5871 5873 5875 5877 5879 5881 5883 5884 5886
5802 5800 5797 5795 5793 5791 5790 5790 5789 5790 5791 5793 5795 5797 5799 5802 5806 5809 5813 5817 5822 5826 5830 5834 5838 5841 5844 5848 5851 5854 5857 5860 5863 5866 5868 5871 5873 5875 5877 5879 5881 5883 5885
5800 5797 5794 5792 5790 5788 5787 5786 5786 5786 5788 5789 5791 5793 5796 5798 5801 5805 5809 5813 5817 5821 5825 5830 5834 5837 5841 5844 5847 5851 5854 5857 5860 5863 5865 5868 5870 5873 5875 5877 5879 5881 5883
5798 5795 5792 5789 5787 5785 5784 5783 5783 5783 5784 5786 5788 5790 5792 5795 5798 5801 5805 5809 5813 5817 5822 5826 5830 5834 5837 5841 5844 5847 5850 5853 5857 5860 5862 5865 5867 5870 5872 5874 5877 5879 5881
5796 5793 5790 5787 5785 5783 5782 5781 5780 5781 5782 5783 5785 5787 5789 5792 5794 5798 5801 5805 5809 5814 5818 5822 5826 5830 5834 5837 5841 5844 5847 5850 5853 5856 5859 5862 5864 5867 5869 5872 5874 5876 5878
5794 5791 5789 5786 5784 5782 5780 5779 5779 5779 5780 5781 5783 5785 5787 5789 5792 5795 5798 5802 5806 5810 5814 5818 5822 5826 5830 5833 5837 5840 5843 5846 5849 5852 5855 5858 5861 5864 5866 5868 5870 5873 5875
5793 5790 5788 5785 5783 5781 5780 5778 5777 5777 5778 5779 5781 5782 5784 5786 5789 5791 5795 5798 5802 5806 5810 5814 5818 5822 5825 5829 5833 5836 5839 5842 5845 5848 5851 5854 5857 5860 5862 5865 5867 5869 5871
5793 5790 5787 5784 5782 5780 5779 5778 5777 5777 5777 5778 5779 5780 5782 5783 5785 5788 5791 5795 5798 5802 5806 5810 5814 5818 5821 5825 5829 5832 5835 5838 5841 5844 5847 5850 5853 5856 5858 5861 5863 5865 5867
5792 5789 5787 5784 5782 5780 5778 5777 5776 5776 5776 5776 5777 5778 5779 5781 5783 5785 5788 5791 5795 5798 5801 5805 5809 5813 5817 5820 5824 5827 5831 5834 5837 5840 5843 5846 5849 5851 5854 5856 5859 5861 5863
5792 5789 5786 5784 5781 5779 5778 5776 5775 5775 5775 5775 5775 5776 5777 5779 5780 5782 5785 5788 5791 5794 5798 5801 5805 5809 5812 5816 5819 5822 5825 5829 5832 5835 5838 5841 5844 5846 5849 5852 5854 5856 5858
5792 5789 5786 5784 5782 5779 5777 5776 5774 5774 5773 5773 5774 5774 5775 5776 5778 5780 5782 5785 5788 5791 5794 5797 5801 5804 5808 5811 5814 5817 5820 5824 5827 5830 5833 5836 5838 5841 5844 5846 5849 5851 5853
5792 5789 5786 5784 5782 5779 5777 5776 5774 5773 5772 5772 5773 5773 5774 5775 5776 5777 5779 5782 5785 5787 5790 5793 5796 5799 5803 5806 5809 5812 5815 5818 5821 5824 5827 5830 5832 5835 5838 5840 5843 5845 5847
5792 5789 5786 5784 5782 5779 5777 5776 5774 5773 5772 5772 5772 5772 5772 5773 5774 5775 5777 5779 5781 5784 5786 5789 5792 5795 5798 5801 5804 5806 5809 5812 5815 5818 5821 5823 5826 5828 5831 5833 5836 5838 5840
5792 5789 5786 5784 5782 5780 5778 5776 5774 5773 5772 5771 5771 5771 5771 5771 5771 5772 5774 5776 5778 5780 5782 5784 5787 5789 5792 5795 5798 5800 5803 5806 5809 5811 5814 5816 5818 5821 5824 5826 5829 5831 5833
5792 5789 5786 5784 5782 5780 5778 5776 5774 5773 5772 5771 5770 5770 5769 5769 5769 5769 5770 5772 5774 5776 5778 5780 5782 5784 5786 5789 5791 5794 5797 5799 5802 5804 5806 5809 5811 5813 5815 5818 5820 5823 5825
5791 5788 5786 5784 5782 5779 5777 5776 5774 5773 5771 5770 5769 5768 5767 5767 5766 5767 5767 5768 5769 5771 5773 5775 5777 5779 5781 5783 5785 5788 5790 5793 5795 5797 5799 5800 5802 5805 5807 5809 5812 5814 5816
5789 5787 5785 5783 5781 5779 5777 5775 5773 5772 5770 5769 5768 5767 5765 5764 5764 5764 5764 5764 5765 5767 5768 5770 5772 5774 5775 5777 5779 5781 5784 5786 5788 5789 5791 5792 5794 5796 5798 5800 5803 5805 5807
5788 5786 5784 5782 5780 5778 5776 5774 5772 5770 5769 5767 5766 5765 5763 5762 5761 5761 5761 5761 5761 5762 5764 5765 5767 5768 5770 5772 5773 5775 5777 5779 5780 5781 5783 5784 5786 5787 5788 5791 5793 5795 5797
5786 5784 5782 5780 5778 5776 5774 5772 5770 5769 5767 5765 5764 5762 5761 5760 5759 5758 5758 5757 5758 5758 5759 5760 5761 5763 5764 5765 5767 5769 5770 5771 5773 5774 5774 5775 5776 5778 5779 5781 5783 5785 5787
5783 5781 5779 5777 5776 5774 5772 5770 5768 5767 5765 5763 5762 5760 5759 5757 5756 5756 5755 5754 5754 5754 5754 5755 5756 5757 5758 5760 5761 5762 5763 5764 5765 5766 5766 5767 5768 5769 5770 5771 5773 5775 5776
5779 5778 5776 5775 5773 5771 5770 5768 5766 5764 5763 5761 5759 5758 5756 5755 5753 5753 5752 5751 5750 5750 5750 5751 5752 5752 5753 5754 5755 5756 5756 5757 5758 5758 5759 5760 5760 5761 5761 5762 5763 5765 5766
5775 5774 5772 5771 5770 5768 5767 5765 5763 5762 5760 5758 5757 5755 5753 5752 5751 5749 5748 5748 5747 5747 5747 5747 5748 5748 5748 5749 5749 5750 5751 5751 5751 5752 5752 5752 5752 5753 5753 5754 5754 5755 5756
5770 5769 5768 5767 5766 5764 5763 5762 5760 5759 5757 5755 5754 5752 5750 5749 5747 5746 5745 5744 5744 5743 5743 5743 5743 5743 5743 5744 5744 5744 5744 5745 5744 5745 5744 5745 5745 5745 5745 5745 5745 5746 5746
Wind_Speed
16 16 15 15 15 15 16 16 16 18 20 21 22 24 24 25 25 26 26 26 24 23 22 20 19 18 18 18 17 16 16 15 14 13 13 12 12 12 11 10 10 10 9
16 16 15 14 13 13 14 15 16 16 18 19 21 23 24 24 25 26 27 26 25 24 23 22 20 19 19 19 19 18 17 16 15 15 14 13 13 13 12 12 11 10 10
16 16 15 14 13 13 12 13 15 16 17 18 20 22 24 25 25 26 27 27 26 25 24 23 22 21 20 20 20 19 19 18 16 16 16 15 14 13 13 13 12 11 10
17 16 15 14 13 11 11 11 13 14 16 18 19 20 22 25 25 26 27 28 27 26 24 24 23 22 22 21 21 21 20 19 18 17 18 17 16 15 14 14 13 12 12
16 15 14 13 12 11 10 11 12 13 15 17 18 19 20 24 25 26 27 27 27 27 26 25 25 24 23 23 22 21 21 20 20 19 19 18 17 16 16 16 15 14 13
16 15 14 13 12 11 10 10 10 11 13 15 17 19 19 21 24 25 26 26 26 26 26 27 26 25 24 24 23 22 22 22 21 20 19 19 19 18 18 17 16 15 14
16 15 14 13 11 10 9 8 8 10 11 13 15 17 19 19 22 23 25 27 27 27 27 28 27 26 25 25 24 23 23 23 22 21 20 19 19 20 19 18 18 17 16
16 15 14 12 11 9 8 6 6 8 10 11 13 15 17 18 21 22 24 25 27 27 27 27 27 26 26 25 25 24 24 23 23 22 22 21 20 20 20 20 19 18 18
15 14 13 12 10 8 7 6 5 6 8 10 11 13 15 17 19 21 23 25 26 27 27 26 26 26 26 26 25 25 24 24 24 24 23 22 21 21 21 21 20 20 19
15 14 12 11 10 8 6 5 4 4 7 9 10 11 12 15 18 20 22 24 26 27 27 27 26 26 27 26 26 25 25 25 24 24 24 24 23 23 22 22 22 22 21
14 14 12 11 10 8 6 5 3 3 4 6 9 10 12 13 16 18 20 22 25 27 27 28 28 26 26 27 27 27 26 26 25 25 25 25 25 24 24 23 23 22 22
14 13 13 11 10 9 7 5 3 3 3 5 7 9 11 12 14 16 18 20 22 24 26 27 27 27 27 27 28 27 27 27 27 26 26 26 26 26 25 25 24 24 24
14 13 12 11 10 9 8 6 4 3 3 4 6 8 10 11 13 14 17 19 21 23 24 25 27 27 27 28 28 28 27 27 28 28 28 28 28 27 27 27 26 25 26
14 13 12 11 11 10 8 7 6 4 4 4 5 6 8 10 12 13 16 18 20 22 23 24 26 26 27 28 28 29 29 29 29 29 30 30 30 29 29 29 28 28 28
14 13 12 11 10 10 9 8 7 5 2 2 4 5 7 8 11 12 14 16 19 21 22 23 25 26 26 27 28 29 29 31 30 30 31 31 31 31 31 31 31 30 30
13 12 12 10 10 10 10 9 8 6 4 3 3 4 6 7 9 11 13 15 17 19 21 22 24 25 26 28 28 29 30 30 31 31 31 32 33 33 32 32 32 32 32
13 12 11 11 11 10 10 9 8 7 5 4 4 4 5 7 8 11 13 14 16 18 20 21 22 24 26 26 27 28 29 30 30 31 32 32 33 33 34 34 34 34 34
12 12 11 11 11 10 10 9 8 7 6 5 5 5 5 6 8 10 12 14 16 17 19 20 21 23 25 26 27 28 28 28 30 30 32 32 33 34 35 36 37 37 36
11 11 11 11 11 10 9 9 8 7 7 6 6 6 6 6 8 9 11 13 15 17 18 20 20 21 23 24 26 27 29 29 29 30 31 32 34 35 36 37 38 38 38
11 11 11 11 11 10 9 9 9 8 7 7 7 7 7 7 8 9 10 12 14 16 17 19 20 21 22 23 24 25 27 29 29 29 30 31 32 34 36 37 38 39 39
11 11 11 11 11 10 10 9 9 9 8 8 8 8 8 7 8 8 10 12 13 15 16 17 19 20 21 22 23 23 24 25 26 27 29 30 31 33 35 36 38 39 39
11 11 11 11 11 10 10 10 10 9 9 9 9 8 8 8 8 8 9 10 12 13 14 16 17 18 19 20 22 23 24 24 26 26 27 28 30 32 34 36 37 38 39
12 12 11 11 11 11 11 10 10 10 10 10 10 10 9 9 8 9 9 9 11 12 13 14 15 16 18 19 20 22 23 24 25 26 28 28 30 31 32 34 36 37 38
13 13 12 12 12 11 11 11 11 11 11 11 11 11 10 10 10 10 10 10 11 11 13 14 15 16 16 17 18 20 21 22 24 25 27 28 29 30 32 33 35 36 38
15 14 14 13 13 12 12 12 12 11 11 11 11 11 11 11 11 11 11 11 12 12 13 15 15 15 16 17 18 20 21 22 24 25 26 27 28 29 31 33 34 36 37
17 16 15 15 14 14 13 13 13 12 12 12 12 12 11 11 12 11 12 12 12 13 14 15 16 17 17 18 19 20 21 22 23 24 25 26 27 28 30 32 34 35 35
Wind_Direction
320 314 307 298 288 280 272 262 256 251 244 239 236 233 231 229 227 225 224 225 225 223 221 219 217 216 215 212 210 210 207 203 201 198 194 193 193 191 189 185 183 183 182
324 320 314 307 296 285 274 262 254 251 244 238 234 231 228 226 225 224 223 223 223 222 219 218 216 215 214 212 211 210 209 207 204 202 199 197 196 195 195 193 193 193 193
327 324 319 313 304 292 279 264 255 248 243 237 233 231 227 224 224 223 222 221 221 221 218 218 217 215 215 214 214 212 210 209 208 207 205 203 202 202 201 199 199 199 199
330 327 323 317 310 297 284 271 258 249 241 234 230 228 227 223 221 221 220 219 219 220 219 218 217 216 215 215 215 214 213 212 211 211 209 209 208 209 207 204 203 205 205
333 330 327 323 314 303 289 275 261 252 241 234 229 225 225 221 220 220 217 215 215 217 218 217 217 217 216 215 215 216 215 214 215 214 214 213 212 212 210 209 208 209 210
335 332 330 326 319 309 296 280 264 252 240 233 228 225 224 224 221 218 217 214 214 216 217 216 216 217 217 216 216 216 216 216 216 217 217 217 215 215 214 214 213 213 214
337 335 333 331 324 315 303 287 268 252 239 230 227 226 224 223 222 219 217 215 214 216 217 217 217 217 217 217 216 216 216 216 217 220 220 218 218 218 217 216 216 217 218
339 338 337 338 333 326 316 296 271 249 236 229 227 227 225 223 220 218 217 215 215 216 217 218 217 217 217 216 216 217 217 218 219 220 221 220 219 220 220 220 219 220 222
343 342 341 341 341 338 328 309 277 247 236 230 228 228 225 222 220 219 218 216 215 215 216 216 217 219 218 217 218 219 219 219 220 221 221 221 222 224 225 224 224 223 225
348 346 346 345 344 342 335 325 298 254 236 231 227 228 226 220 218 217 218 216 215 215 214 216 218 221 220 218 219 219 220 220 221 222 222 223 225 227 227 227 227 227 229
351 350 350 348 345 342 335 330 309 260 239 230 226 227 225 218 215 217 217 216 216 216 215 216 217 220 221 221 221 222 222 221 222 223 225 226 227 229 230 230 230 231 231
354 353 353 352 350 346 340 328 299 269 250 237 228 225 222 218 216 218 218 217 217 217 217 218 220 221 222 222 224 225 224 224 225 226 227 228 229 230 232 232 233 234 234
357 355 355 357 357 356 356 345 323 278 261 247 233 224 223 223 218 218 218 218 218 218 219 219 220 222 223 224 225 226 226 227 228 228 228 230 231 233 234 234 235 236 236
359 357 357 359 2 2 1 358 350 322 274 245 237 230 230 229 224 222 220 219 219 219 220 220 221 222 225 226 228 227 228 228 230 231 231 233 234 235 235 237 237 238 238
358 358 358 360 2 2 360 359 358 354 329 267 245 238 237 234 229 226 224 222 222 223 223 224 224 224 227 229 229 229 231 231 233 233 234 236 236 237 238 238 238 240 240
357 358 360 359 359 1 3 3 1 359 347 323 285 257 248 241 232 230 228 225 226 226 226 227 227 228 230 232 233 233 234 234 235 237 238 239 239 240 240 240 241 242 242
356 359 1 3 2 2 2 1 1 359 351 338 314 290 272 257 243 240 235 231 230 229 229 229 230 231 232 233 234 236 237 237 237 239 240 242 242 242 242 242 242 243 244
351 356 358 0 1 1 360 358 355 353 349 341 328 313 298 275 257 251 244 237 234 231 230 232 234 235 235 235 235 236 237 239 241 242 243 244 244 244 244 244 243 244 245
345 348 350 353 355 355 355 353 350 345 342 335 328 319 306 286 268 259 251 244 240 237 235 235 238 238 238 238 237 239 240 242 244 245 245 246 246 245 245 244 244 245 246
338 340 342 345 347 348 349 348 346 341 337 332 328 319 308 292 277 265 257 250 244 241 239 239 240 241 241 241 241 243 243 244 245 246 247 248 248 248 247 245 244 245 246
329 333 335 337 339 341 342 342 340 337 332 328 326 321 315 303 287 272 267 257 249 245 244 242 242 243 244 243 243 244 245 246 248 248 249 250 250 250 248 248 247 247 247
317 322 326 330 333 333 333 333 333 330 328 323 320 316 312 306 292 281 274 263 253 250 247 245 244 246 247 246 245 246 248 248 250 251 251 252 252 252 250 249 249 249 250
305 311 315 319 323 327 328 328 326 324 324 321 318 314 310 304 293 284 277 268 262 258 253 249 246 247 248 248 247 248 249 250 251 253 254 255 255 254 253 252 250 250 251
293 300 304 308 312 317 320 323 324 322 321 320 317 314 310 303 294 289 285 278 271 265 258 251 248 250 250 250 251 252 252 252 252 253 255 256 255 254 254 255 254 253 253
284 289 294 298 302 306 309 313 316 316 317 316 315 312 307 303 296 289 286 281 276 270 265 256 255 255 255 256 257 256 255 256 256 256 255 256 256 255 256 257 256 256 255
276 280 284 288 292 296 299 302 307 310 312 313 312 311 307 301 298 291 286 281 276 272 267 264 262 260 259 259 260 261 261 261 261 261 260 259 259 258 257 258 258 257 257